Waarnemingen

Advertentie
Mijn weer
Freiburg, Duitsland (10803): temperatuur & dauwpunt: 20.05.2017 16:00:00 - 26.05.2017 16:00:00 (CEST)Freiburg, Duitsland (10803): temperatuur 5cm & temperatuur -5cm: 20.05.2017 16:00:00 - 26.05.2017 16:00:00 (CEST)Freiburg, Duitsland (10803): temperatuur -20cm & temperatuur -100cm: 20.05.2017 16:00:00 - 26.05.2017 16:00:00 (CEST)Freiburg, Duitsland (10803): windsnelheid & windstoten: 20.05.2017 16:00:00 - 26.05.2017 16:00:00 (CEST)Freiburg, Duitsland (10803): windrichting: 20.05.2017 16:00:00 - 26.05.2017 16:00:00 (CEST)Freiburg, Duitsland (10803): luchtdruk: 20.05.2017 16:00:00 - 26.05.2017 16:00:00 (CEST)Freiburg, Duitsland (10803): zicht: 20.05.2017 16:00:00 - 26.05.2017 16:00:00 (CEST)Freiburg, Duitsland (10803): Zonneschijnduur: 20.05.2017 16:00:00 - 26.05.2017 16:00:00 (CEST)Freiburg, Duitsland (10803): neerslag: 20.05.2017 16:00:00 - 26.05.2017 16:00:00 (CEST)
Datum & Tijd tt [°C] td [°C] tt 5cm [°C] tt -5cm [°C] tt -20cm [°C] tt -100cm [°C] ff [km/u] ff [kn] fx [km/u] fx [kn] dd ppp [hPa] vv [km] sd [min] rr [mm]
26.05.2017 16:00:00 27,3 12,6 32,5 32,6 22,4 14,8 16 9 27 15 WNW 1015,3 12 60 0,0
26.05.2017 15:00:00 26,3 11,9 36,2 32,3 21,5 14,8 11 6 22 12 NNW 1016,4 15 60 0,0
26.05.2017 14:00:00 25,2 12,5 32,8 30,9 20,6 14,8 16 8 24 13 NW 1017,1 20 60 0,0
26.05.2017 13:00:00 24,1 11,6 33,4 29,4 19,7 14,7 11 6 28 15 NW 1017,9 21 60 0,0
26.05.2017 12:00:00 22,9 12,9 33,1 27,1 18,9 14,7 11 6 24 13 NNW 1018,5 19 60 0,0
26.05.2017 11:00:00 21,7 10,1 30,5 24,4 18,3 14,7 8 4 17 9 NNW 1019,0 16 60 0,0
26.05.2017 10:00:00 19,8 12,4 28,0 21,3 17,9 14,7 8 4 14 7 NNW 1019,3 15 60 0,0
26.05.2017 09:00:00 17,1 10,9 23,9 18,1 17,8 14,7 6 3 10 5 NNW 1019,7 21 60 0,0
26.05.2017 08:00:00 14,7 9,4 18,9 15,4 18,1 14,7 5 3 12 6 N 1019,7 19 60 0,0
26.05.2017 07:00:00 12,3 8,7 12,4 13,8 18,4 14,7 0 0 5 3 N 1019,9 15 26 0,0
26.05.2017 06:00:00 8,9 7,7 6,6 13,9 18,8 14,6 4 2 14 8 WNW 1020,0 14 0 0,0
26.05.2017 05:00:00 12,7 9,0 10,6 14,7 19,3 14,6 9 5 14 8 NO 1019,5 32 0 0,0
26.05.2017 04:00:00 14,4 8,9 11,4 15,1 19,7 14,6 10 5 14 8 NO 1019,6 44 0 0,0
26.05.2017 03:00:00 12,7 9,1 7,7 15,6 20,2 14,6 4 2 9 5 NO 1019,9 18 0 0,0
26.05.2017 02:00:00 12,4 9,8 8,5 16,3 20,8 14,6 6 3 12 6 NNO 1020,2 19 0 0,0
26.05.2017 01:00:00 12,1 9,4 8,5 17,1 21,3 14,6 3 2 7 4 NNO 1020,6 18 0 0,0
26.05.2017 00:00:00 13,5 9,6 9,0 18,2 21,9 14,6 3 1 5 3 W 1020,5 20 0 0,0
25.05.2017 23:00:00 14,9 10,6 10,5 19,6 22,4 14,5 2 1 9 5 NNO 1020,1 21 0 0,0
25.05.2017 22:00:00 18,4 10,8 13,7 21,3 22,8 14,5 6 3 16 8 NNO 1019,7 22 0 0,0
25.05.2017 21:00:00 20,6 11,4 18,5 23,2 23,1 14,5 9 5 21 11 N 1018,8 25 24 0,0
25.05.2017 20:00:00 22,3 10,9 23,4 25,2 23,2 14,5 11 6 28 15 N 1018,6 15 60 0,0
25.05.2017 19:00:00 23,1 11,1 26,7 27,0 23,1 14,5 15 8 30 16 N 1018,6 11 60 0,0
25.05.2017 18:00:00 23,2 11,8 27,9 28,4 22,8 14,5 19 11 35 19 NNW 1018,7 9 60 0,0
25.05.2017 17:00:00 23,3 12,1 30,0 29,5 22,3 14,4 20 11 32 17 NNW 1019,0 19 60 0,0
25.05.2017 16:00:00 23,6 13,2 31,2 29,7 21,7 14,4 20 11 31 17 NNW 1019,3 8 60 0,0
25.05.2017 15:00:00 22,8 12,7 30,9 29,2 21,1 14,4 19 11 29 16 NW 1019,9 11 59 0,0
25.05.2017 14:00:00 21,5 11,9 27,7 27,5 20,6 14,4 16 8 29 16 NNW 1020,4 6 31 0,0
25.05.2017 13:00:00 21,6 13,3 29,4 27,3 19,9 14,4 18 10 28 15 NNW 1020,8 4,9 52 0,0
25.05.2017 12:00:00 21,1 12,5 29,4 26,4 19,2 14,4 11 6 23 12 NNW 1021,3 9 59 0,0
25.05.2017 11:00:00 20,1 11,9 28,6 24,2 18,7 14,3 11 6 17 9 NW 1021,4 9 60 0,0
25.05.2017 10:00:00 19,1 13,3 25,3 21,3 18,4 14,3 6 3 15 8 N 1021,7 10 49 0,0
25.05.2017 09:00:00 17,3 11,6 22,2 18,8 18,4 14,3 8 4 11 6 NNW 1021,7 12 60 0,0
25.05.2017 08:00:00 15,0 11,9 18,2 16,5 18,6 14,3 4 2 6 3 NNW 1021,8 16 52 0,0
25.05.2017 07:00:00 13,5 11,5 13,3 15,5 19,0 14,3 3 1 6 3 O 1022,1 14 23 0,0
25.05.2017 06:00:00 11,2 10,4 8,1 15,4 19,4 14,3 0 0 5 3 N 1022,3 15 0 0,0
25.05.2017 05:00:00 12,0 10,9 8,6 16,1 19,8 14,3 0 0 6 4 N 1022,2 15 0 0,0
25.05.2017 04:00:00 12,7 11,0 10,1 17,0 20,2 14,2 3 2 10 6 WZW 1022,0 13 0 0,0
25.05.2017 03:00:00 15,2 12,2 12,5 18,0 20,6 14,2 7 4 14 7 N 1021,9 18 0 0,0
25.05.2017 02:00:00 15,2 12,3 14,2 18,8 20,9 14,2 3 2 8 4 N 1022,5 19 0 0,0
25.05.2017 01:00:00 16,2 13,1 14,9 19,7 21,3 14,2 0 0 7 4 N 1022,6 19 0 0,0
25.05.2017 00:00:00 16,6 12,6 16,3 20,1 21,7 14,2 3 1 5 3 N 1023,0 21 0 0,0
24.05.2017 23:00:00 16,4 12,4 15,7 20,6 22,1 14,2 0 0 8 4 N 1022,9 19 0 0,0
24.05.2017 22:00:00 15,9 11,2 13,0 21,3 22,6 14,2 2 1 9 5 N 1022,7 21 0 0,0
24.05.2017 21:00:00 20,0 10,6 17,5 23,1 22,9 14,2 8 4 16 9 N 1022,1 22 14 0,0
24.05.2017 20:00:00 21,5 10,4 22,4 25,1 23,0 14,1 9 5 20 11 N 1021,7 14 51 0,0
24.05.2017 19:00:00 22,4 10,6 25,1 27,0 22,9 14,1 10 5 26 14 N 1021,5 23 55 0,0
24.05.2017 18:00:00 23,0 9,8 28,7 28,6 22,6 14,1 14 7 23 12 NNW 1021,6 6 60 0,0
24.05.2017 17:00:00 22,6 7,1 30,7 29,7 22,2 14,1 11 6 19 10 N 1022,3 12 60 0,0
24.05.2017 16:00:00 22,2 7,7 29,1 29,9 21,6 14,1 11 6 29 16 NNW 1022,5 16 60 0,0
24.05.2017 15:00:00 21,6 8,7 30,6 29,7 20,9 14,1 13 7 24 13 NNW 1022,9 9 60 0,0
24.05.2017 14:00:00 21,0 9,8 31,5 28,8 20,1 14,1 12 6 33 18 NNW 1023,2 10 60 0,0
24.05.2017 13:00:00 20,2 8,8 27,7 27,8 19,4 14,0 13 7 25 14 NW 1024,0 30 60 0,0
24.05.2017 12:00:00 19,8 9,4 29,1 26,0 18,7 14,0 8 5 23 12 N 1024,3 25 60 0,0
24.05.2017 11:00:00 19,0 8,5 26,6 23,6 18,3 14,0 8 4 23 13 NNW 1024,4 31 60 0,0
24.05.2017 10:00:00 18,3 8,7 24,5 21,0 18,0 14,0 9 5 14 8 NW 1024,6 24 60 0,0
24.05.2017 09:00:00 17,2 10,5 22,4 18,7 18,0 14,0 12 6 16 9 NW 1024,9 21 60 0,0
24.05.2017 08:00:00 15,9 10,8 20,2 16,9 18,2 14,0 5 3 7 4 NW 1024,5 23 50 0,0
24.05.2017 07:00:00 13,2 11,4 12,8 15,9 18,5 14,0 4 2 7 4 NW 1024,6 18 0 0,0
24.05.2017 06:00:00 14,6 11,2 12,5 16,0 18,8 14,0 4 2 16 9 ZZO 1023,8 20 0 0,0
24.05.2017 05:00:00 14,9 11,3 13,0 16,6 19,1 14,0 8 4 16 8 NNW 1023,6 23 0 0,0
24.05.2017 04:00:00 14,6 12,1 12,7 17,0 19,5 13,9 4 2 6 3 NNW 1023,2 25 0 0,0
24.05.2017 03:00:00 14,4 11,7 10,6 17,3 19,8 13,9 3 2 4 2 ZW 1022,9 26 0 0,0
24.05.2017 02:00:00 15,7 12,4 13,4 18,4 20,2 13,9 2 1 9 5 NNW 1022,7 28 0 0,0
24.05.2017 01:00:00 17,7 12,1 14,8 19,2 20,5 13,9 3 2 13 7 N 1022,4 30 0 0,0
24.05.2017 00:00:00 18,0 12,9 14,7 19,9 20,8 13,9 3 2 12 7 NNW 1022,1 28 0 0,0
23.05.2017 23:00:00 20,8 13,0 18,7 20,8 21,2 13,9 5 3 10 5 NNO 1021,2 31 0 0,0
23.05.2017 22:00:00 21,0 13,2 18,0 21,5 21,5 13,9 7 4 12 7 N 1020,2 32 0 0,0
23.05.2017 21:00:00 22,4 12,8 18,9 23,2 21,6 13,9 4 2 20 11 NW 1019,3 36 17 0,0
23.05.2017 20:00:00 23,5 13,6 24,2 24,7 21,6 13,9 7 4 18 10 WNW 1019,0 42 34 0,0
23.05.2017 19:00:00 25,0 12,1 28,8 26,1 21,5 13,9 13 7 28 15 NNW 1018,3 16 23 0,0
23.05.2017 18:00:00 25,1 11,0 27,1 27,5 21,2 13,9 18 10 27 15 NNW 1018,4 15 44 0,0
23.05.2017 17:00:00 26,1 12,9 32,6 27,4 20,9 13,9 8 4 18 10 NW 1018,1 8 18 0,0
23.05.2017 16:00:00 24,8 13,8 27,4 28,2 20,3 13,8 11 6 22 12 NW 1018,0 16 30 0,0
23.05.2017 15:00:00 24,6 12,3 26,4 28,1 19,7 13,8 16 9 29 16 ZW 1018,2 9 31 0,0
23.05.2017 14:00:00 24,8 12,1 30,2 28,9 18,9 13,8 12 6 23 13 ZZW 1018,1 14 49 0,0
23.05.2017 13:00:00 24,2 12,6 29,2 27,3 18,0 13,8 11 6 21 11 ZW 1018,7 19 56 0,0
23.05.2017 12:00:00 23,5 12,0 29,9 25,5 17,3 13,8 11 6 21 12 ZW 1018,9 14 60 0,0
23.05.2017 11:00:00 22,4 12,7 27,1 22,9 16,8 13,8 16 9 22 12 ZW 1019,0 12 60 0,0
23.05.2017 10:00:00 21,6 12,1 26,1 20,2 16,4 13,8 13 7 23 13 ZW 1018,9 11 60 0,0
23.05.2017 09:00:00 19,9 12,7 22,8 17,2 16,4 13,8 3 1 6 3 ZZO 1018,9 21 34 0,0
23.05.2017 08:00:00 15,0 12,8 16,2 15,2 16,5 13,8 3 1 6 4 NW 1019,0 21 0 0,0
23.05.2017 07:00:00 12,0 10,8 11,4 13,8 16,8 13,8 2 1 5 3 N 1018,5 19 0 0,0
23.05.2017 06:00:00 10,8 9,7 9,3 13,4 17,2 13,8 2 1 6 3 OZO 1018,4 19 0 0,0
23.05.2017 05:00:00 10,1 9,7 7,4 13,7 17,6 13,8 0 0 4 2 N 1018,2 17 0 0,0
23.05.2017 04:00:00 10,6 9,9 8,4 14,4 18,0 13,8 0 0 4 2 N 1018,1 17 0 0,0
23.05.2017 03:00:00 11,3 9,7 7,9 15,0 18,4 13,8 2 1 4 2 W 1018,1 24 0 0,0
23.05.2017 02:00:00 12,3 10,7 9,9 15,9 18,9 13,8 2 1 4 2 NW 1017,9 20 0 0,0
23.05.2017 01:00:00 12,1 10,8 9,4 16,6 19,4 13,8 3 1 5 3 NW 1017,5 21 0 0,0
23.05.2017 00:00:00 12,9 11,2 9,7 17,4 19,8 13,8 4 2 5 3 ZZW 1017,2 21 0 0,0
22.05.2017 23:00:00 14,3 11,8 10,8 18,7 20,3 13,8 3 1 5 3 N 1016,9 23 0 0,0
22.05.2017 22:00:00 15,7 11,8 12,0 20,2 20,7 13,8 3 1 6 3 W 1016,2 27 0 0,0
22.05.2017 21:00:00 20,0 11,7 15,0 22,2 20,9 13,8 4 2 10 5 NNO 1015,4 29 18 0,0
22.05.2017 20:00:00 23,4 10,6 24,6 24,5 21,0 13,8 6 4 16 8 N 1015,0 36 60 0,0
22.05.2017 19:00:00 24,0 10,7 28,7 26,8 20,7 13,8 9 5 16 9 NNW 1014,9 29 60 0,0
22.05.2017 18:00:00 24,3 10,6 30,5 28,6 20,3 13,8 10 5 14 8 NW 1015,2 21 60 0,0
22.05.2017 17:00:00 23,8 9,1 31,6 29,7 19,6 13,8 7 4 19 10 NNW 1015,7 22 60 0,0
22.05.2017 16:00:00 23,6 8,4 32,0 30,0 18,7 13,8 7 4 20 11 WNW 1016,3 28 60 0,0
22.05.2017 15:00:00 22,9 7,5 29,4 29,5 17,8 13,8 12 6 21 11 W 1016,9 24 60 0,0
22.05.2017 14:00:00 22,6 8,5 29,6 28,6 16,8 13,8 10 5 22 12 WZW 1017,1 29 60 0,0
22.05.2017 13:00:00 21,4 10,3 28,3 26,9 15,8 13,8 4 2 16 8 Z 1017,5 31 60 0,0
22.05.2017 12:00:00 19,9 9,7 26,9 24,3 14,9 13,8 4 2 16 9 ZW 1018,3 25 60 0,0
22.05.2017 11:00:00 18,9 11,0 24,9 21,3 14,2 13,8 6 3 12 6 ZW 1018,8 35 60 0,0
22.05.2017 10:00:00 17,3 9,3 24,4 18,2 13,7 13,8 2 1 7 4 N 1019,1 28 60 0,0
22.05.2017 09:00:00 15,4 8,6 20,3 15,1 13,4 13,8 3 2 5 3 NNW 1019,3 28 59 0,0
22.05.2017 08:00:00 14,1 8,4 15,7 11,9 13,4 13,8 2 1 5 3 WZW 1019,6 22 60 0,0
22.05.2017 07:00:00 9,8 7,3 8,6 9,1 13,8 13,8 0 0 3 2 N 1020,0 22 25 0,0
22.05.2017 06:00:00 6,3 5,8 3,9 8,7 14,1 13,8 3 1 6 3 N 1020,2 20 0 0,0
22.05.2017 05:00:00 7,7 6,8 4,2 9,3 14,5 13,9 3 2 5 3 NNO 1019,9 25 0 0,0
22.05.2017 04:00:00 10,1 7,2 6,8 10,0 14,9 13,9 6 4 13 7 NW 1019,8 36 0 0,0
22.05.2017 03:00:00 11,1 7,2 8,1 10,5 15,4 13,9 6 4 15 8 WZW 1019,8 37 0 0,0
22.05.2017 02:00:00 11,1 7,6 6,2 11,0 15,8 13,9 4 2 10 6 N 1020,1 44 0 0,0
22.05.2017 01:00:00 9,8 7,8 7,6 11,8 16,3 13,9 4 2 11 6 N 1020,9 36 0 0,0
22.05.2017 00:00:00 14,7 8,0 9,2 12,7 16,8 13,9 5 3 11 6 ONO 1021,0 40 0 0,0
21.05.2017 23:00:00 13,1 9,0 9,0 13,7 17,3 13,9 4 2 6 3 NNW 1021,1 43 0 0,0
21.05.2017 22:00:00 14,1 8,6 9,9 15,4 17,7 13,9 3 2 8 5 NO 1021,3 47 0 0,0
21.05.2017 21:00:00 19,0 8,3 16,2 17,2 18,0 13,9 6 3 20 11 N 1020,8 70 21 0,0
21.05.2017 20:00:00 19,9 8,4 20,5 19,2 18,1 13,9 11 6 30 16 N 1020,7 20 59 0,0
21.05.2017 19:00:00 20,4 9,1 22,5 21,0 18,2 13,9 13 7 31 17 N 1020,8 22 21 0,0
21.05.2017 18:00:00 19,8 8,8 20,0 21,5 18,1 13,9 18 10 29 16 NNW 1021,2 23 11 0,0
21.05.2017 17:00:00 21,7 6,9 25,7 23,8 17,7 13,9 13 7 28 15 NNO 1021,3 26 29 0,0
21.05.2017 16:00:00 21,0 6,3 23,3 24,9 17,2 13,9 12 6 29 16 N 1022,0 25 32 0,0
21.05.2017 15:00:00 20,6 6,1 23,4 25,8 16,4 13,9 12 7 30 16 N 1022,5 32 51 0,0
21.05.2017 14:00:00 20,0 8,7 26,8 24,4 15,6 14,0 15 8 31 17 NNW 1023,4 25 57 0,0
21.05.2017 13:00:00 19,2 10,5 24,1 22,4 14,8 14,0 17 9 29 15 NNW 1024,5 29 51 0,0
21.05.2017 12:00:00 17,8 10,2 23,2 22,8 13,8 14,0 14 8 20 11 NW 1025,3 27 60 0,0
21.05.2017 11:00:00 15,5 9,4 22,0 20,6 12,8 14,0 8 4 14 8 NNW 1026,0 34 60 0,0
21.05.2017 10:00:00 13,9 9,0 19,3 17,2 12,2 14,0 5 3 10 6 NW 1026,6 33 60 0,0
21.05.2017 09:00:00 11,3 7,6 16,2 13,3 11,8 14,0 6 3 11 6 NW 1027,2 29 60 0,0
21.05.2017 08:00:00 9,7 6,8 12,1 9,6 11,8 14,0 5 3 9 5 N 1027,3 38 60 0,0
21.05.2017 07:00:00 6,1 4,9 6,0 6,7 12,2 14,0 0 0 5 3 N 1027,5 26 24 0,0
21.05.2017 06:00:00 3,6 3,6 0,9 6,3 12,6 14,0 3 1 4 2 N 1027,6 14 0 0,0
21.05.2017 05:00:00 4,0 4,0 1,8 6,7 13,0 14,0 4 2 6 3 NNW 1027,7 11 0 0,0
21.05.2017 04:00:00 4,5 4,0 2,0 7,3 13,4 14,0 2 1 4 2 NNW 1027,8 40 0 0,0
21.05.2017 03:00:00 4,9 4,3 2,2 7,9 13,9 14,1 0 0 4 2 N 1027,8 37 0 0,0
21.05.2017 02:00:00 5,2 4,9 3,4 8,6 14,4 14,1 4 2 5 3 N 1027,7 29 0 0,0
21.05.2017 01:00:00 6,4 6,1 4,0 9,4 14,9 14,1 4 2 5 3 NNW 1027,7 30 0 0,0
21.05.2017 00:00:00 7,8 7,4 4,9 10,3 15,4 14,1 3 2 4 2 N 1027,1 36 0 0,0
20.05.2017 23:00:00 8,6 7,6 5,8 11,4 15,9 14,1 4 2 6 3 NNO 1027,1 38 0 0,0
20.05.2017 22:00:00 10,3 7,8 6,7 12,9 16,3 14,1 4 2 8 5 N 1026,4 53 0 0,0
20.05.2017 21:00:00 12,6 7,8 10,5 14,8 16,6 14,1 4 2 9 5 N 1025,6 62 20 0,0
20.05.2017 20:00:00 16,0 6,5 17,1 16,8 16,8 14,1 7 4 14 8 N 1024,9 53 56 0,0
20.05.2017 19:00:00 16,1 7,3 17,7 18,9 16,7 14,1 8 5 17 9 N 1024,5 33 30 0,0
20.05.2017 18:00:00 16,4 5,9 18,1 19,4 16,5 14,1 4 2 21 11 W 1024,1 70 2 0,0
20.05.2017 17:00:00 16,2 4,6 17,8 21,2 16,1 14,1 11 6 22 12 ZW 1024,0 38 29 0,0
20.05.2017 16:00:00 16,9 7,5 21,4 21,5 15,6 14,1 7 4 18 10 ZW 1023,7 66 9 0,0

tt = temperatuur
td = dauwpunt
tt 5cm = temperatuur 5cm
tt -5cm = temperatuur -5cm
tt -20cm = temperatuur -20cm
tt -100cm = temperatuur -100cm
ff = windsnelheid
fx = windstoten
dd = windrichting
ppp = luchtdruk
vv = zicht
sd = Zonneschijnduur
rr = neerslag

Weerstations in de omgeving